IZ3VCM Weather Reports


Display with metric or nautical units.
time (UTC)temp
F
wind
direction
speed
MPH
gust
MPH
rain 1hr
in
rain 24hr
in
rain mn
in
humidity
%
barometer
mb
20260505101503 60 90 5.0 6.0 0.05 0.10 0.09 86 1013.0
20260505100005 60 0 0.0 0.0 0.05 0.10 0.09 86 1013.2
20260505094503 60 0 0.0 0.0 0.02 0.07 0.07 85 1013.3
20260505093005 60 0 0.0 0.0 0.02 0.07 0.07 84 1013.8
20260505091503 60 0 0.0 0.0 0.02 0.05 0.05 84 1013.9
20260505090005 61 0 0.0 0.0 0.05 0.05 0.05 84 1013.5
20260505084502 61 0 0.0 0.0 0.05 0.05 0.05 84 1013.5
20260505083005 60 0 0.0 0.0 0.05 0.05 0.05 83 1013.7
20260505081503 59 0 0.0 0.0 0.02 0.02 0.02 82 1013.6
20260505080005 60 0 0.0 0.0 0.00 0.00 0.00 80 1013.8
20260505074503 60 156 0.0 1.0 0.00 0.00 0.00 77 1013.6
20260505073004 61 181 1.0 3.0 0.00 0.00 0.00 75 1013.7
20260505071503 61 0 0.0 0.0 0.00 0.00 0.00 74 1013.7
20260505070005 61 0 0.0 0.0 0.00 0.00 0.00 76 1013.3
20260505064506 60 0 0.0 0.0 0.00 0.00 0.00 77 1013.3
20260505063007 60 0 0.0 0.0 0.00 0.00 0.00 78 1013.3
20260504221504 61 0 0.0 0.0 0.00 0.00 0.00 69 1014.7
20260504220006 61 0 0.0 0.0 0.00 0.00 0.00 68 1014.8
20260504214504 62 0 0.0 0.0 0.00 0.00 0.00 67 1014.9
20260504213006 62 157 2.0 4.0 0.00 0.00 0.00 66 1015.0
20260504211505 62 181 2.0 4.0 0.00 0.00 0.00 66 1015.1
20260504210007 63 0 0.0 0.0 0.00 0.00 0.00 64 1015.3
20260504204503 64 156 0.0 1.0 0.00 0.00 0.00 63 1015.3
20260504203005 64 0 0.0 0.0 0.00 0.00 0.00 62 1015.2
20260504201505 65 0 0.0 0.0 0.00 0.00 0.00 61 1015.1
20260504200006 65 0 0.0 0.0 0.00 0.00 0.00 60 1015.0
20260504194504 65 181 1.0 3.0 0.00 0.00 0.00 59 1015.0
20260504193006 65 0 0.0 0.0 0.00 0.00 0.00 58 1014.9
20260504191504 66 0 0.0 0.0 0.00 0.00 0.00 56 1014.8
20260504190006 67 0 0.0 0.0 0.00 0.00 0.00 55 1014.7
20260504184503 69 181 1.0 2.0 0.00 0.00 0.00 52 1014.7
20260504183006 69 168 0.0 2.0 0.00 0.00 0.00 52 1014.6
20260504181503 71 165 2.0 4.0 0.00 0.00 0.00 49 1014.6
20260504180005 72 165 6.0 8.0 0.00 0.00 0.00 48 1014.4
20260504174504 74 144 2.0 4.0 0.00 0.00 0.00 45 1014.3
20260504173006 77 161 4.0 8.0 0.00 0.00 0.00 42 1014.2
20260504171504 82 0 0.0 0.0 0.00 0.00 0.00 31 1014.1